Weather in Ingar

Russia / Ivanovo Oblast     57°23′44″N   41°18′01″E
temp.,
°C
wind,
m/s
gust,
m/s
humid.,
%
clouds,
%
prec.,
mm/h
press.,
hPa
HPBL,
m
8 august, mon
mon800:00+17n3698100 0.2 1019242
03:00+14nnw3497100 0.4 1021110
06:00+15n3594100 0.1 1022216
09:00+15n359399 0.2 1022228
12:00+17ne457986 0.0 1022369
15:00+20nne2365100 0.1 1022504
18:00+20n44655 0.1 1021429
21:00+15nne368653 0.2 1022102
9 august, tue
tue900:00+14ne229031 0.0 102223
03:00+13n3493100 0.0 102165
06:00+15nne2585100 0.0 1021143
09:00+19nne226595 0.0 1021510
12:00+18sse2379100 0.2 1021255
15:00+16wsw3391100 1.1 1021147
18:00+17nw2489100 1.1 1021203
21:00+15nnw1294100 1.1 102114
10 august, wed
wed1000:00+14nw229572 0.0 102022
03:00+13nw35961 0.0 102086
06:00+13nw379451 0.0 1020180
09:00+18nnw57735 0.0 1020631
12:00+21nnw555255 0.2 10201427
15:00+21nw66556 1.0 10201471
18:00+17nnw697061 1.9 1021742
21:00+13nw389429 3.4 1021209
11 august, thu
thu1100:00+12nw359713 0.0 102397
03:00+11nw34965 0.0 102372
06:00+12nw36925 0.0 1024154
09:00+18wnw45655 0.0 1025519
12:00+23nw56405 0.0 10241940
15:00+24nw56335 0.0 10232239
18:00+22nw47397 0.0 10231088
21:00+16wnw2258100 0.0 102418
12 august, fri
fri1200:00+15w3364100 0.0 102434
03:00+14w357198 0.0 102475
06:00+14w386937 0.0 1024182
09:00+21w57469 0.0 1023668
12:00+25wnw68385 0.0 10221732
15:00+26wnw783646 0.0 10212233
18:00+24nw68470 0.0 10211578
21:00+18wnw36690 0.0 102282